Location: Street
(51.1247°N, 2.7429°W)
Time: 04:08:17
(UTC+00:00)

Explorer 7 - Visible Passes

Search period start: 09 December 2023 00:00
Search period end: 19 December 2023 00:00
Orbit: 472 x 640 km, 50.3° (Epoch: 08 December)

Date Brightness Start Highest point End Pass type
(mag) Time Alt. Az. Time Alt. Az. Time Alt. Az.
09 Dec 6.7 18:00:49 10° W 18:04:28 66° SSW 18:05:46 37° ESE visible
09 Dec 9.7 19:40:54 10° W 19:41:33 14° W 19:41:33 14° W visible
10 Dec 6.9 17:57:14 10° W 18:00:51 58° SSW 18:02:32 28° SE visible
10 Dec 9.6 19:37:31 10° W 19:38:19 14° WSW 19:38:19 14° WSW visible
11 Dec 7.3 17:53:38 10° W 17:57:13 49° SSW 17:59:25 21° SE visible
11 Dec 9.6 19:34:16 10° WSW 19:35:12 13° WSW 19:35:12 13° WSW visible
12 Dec 7.7 17:50:03 10° W 17:53:32 41° SSW 17:56:25 14° SE visible
12 Dec 9.6 19:31:24 10° WSW 19:32:14 11° SW 19:32:14 11° SW visible
13 Dec 8.1 17:46:30 10° W 17:49:50 33° SSW 17:53:11 10° SE visible
14 Dec 8.6 17:42:57 10° W 17:46:06 26° SSW 17:49:14 10° SSE visible
15 Dec 9.1 17:39:29 10° W 17:42:19 21° SW 17:45:09 10° SSE visible
16 Dec 9.5 17:36:08 10° WSW 17:38:30 16° SW 17:40:52 10° S visible
17 Dec 9.7 17:33:04 10° WSW 17:34:38 12° SW 17:36:13 10° SSW visible
